| time (UTC) | temp F | wind direction | speed MPH | gust MPH | rain 1hr in | rain 24hr in | rain mn in | humidity % | barometer mb |
| 20260510015847 | 52 | 162 | 0.0 | 1.0 | 0.00 | 0.29 | 0.29 | 85 | |
| 20260510015325 | 52 | 162 | 0.0 | 5.0 | 0.00 | 0.29 | 0.29 | 85 | |
| 20260510014823 | 52 | 170 | 2.0 | 5.0 | 0.00 | 0.29 | 0.29 | 85 | |
| 20260510014323 | 52 | 210 | 0.0 | 0.0 | 0.00 | 0.29 | 0.29 | 84 | |
| 20260510013823 | 53 | 210 | 0.0 | 0.0 | 0.00 | 0.29 | 0.29 | 83 | |
| 20260510013322 | 53 | 212 | 0.0 | 4.0 | 0.00 | 0.29 | 0.29 | 82 | |
| 20260510012821 | 53 | 210 | 1.0 | 4.0 | 0.00 | 0.29 | 0.29 | 82 | |
| 20260510012322 | 54 | 311 | 0.0 | 5.0 | 0.00 | 0.29 | 0.29 | 82 | |
| 20260510011822 | 54 | 313 | 2.0 | 7.0 | 0.00 | 0.29 | 0.29 | 83 | |
| 20260510011322 | 54 | 310 | 1.0 | 7.0 | 0.00 | 0.29 | 0.29 | 83 | |
| 20260510010823 | 54 | 292 | 1.0 | 7.0 | 0.00 | 0.29 | 0.29 | 83 | |
| 20260510010322 | 54 | 280 | 1.0 | 10.0 | 0.00 | 0.29 | 0.29 | 83 | |
| 20260510005824 | 53 | 208 | 0.0 | 10.0 | 0.00 | 0.29 | 0.29 | 83 | |
| 20260510005323 | 54 | 231 | 2.0 | 9.0 | 0.00 | 0.29 | 0.29 | 83 | |
| 20260510004844 | 54 | 232 | 0.0 | 4.0 | 0.00 | 0.29 | 0.29 | 83 | |
| 20260510004324 | 54 | 237 | 0.0 | 5.0 | 0.00 | 0.29 | 0.29 | 83 | |
| 20260510003908 | 54 | 249 | 2.0 | 5.0 | 0.00 | 0.29 | 0.29 | 83 | |
| 20260510003328 | 54 | 239 | 0.0 | 6.0 | 0.00 | 0.29 | 0.29 | 83 | |
| 20260510002827 | 54 | 245 | 2.0 | 8.0 | 0.00 | 0.29 | 0.29 | 83 | |
| 20260510002345 | 54 | 312 | 2.0 | 8.0 | 0.00 | 0.29 | 0.29 | 83 | |
| 20260510001824 | 54 | 263 | 3.0 | 5.0 | 0.00 | 0.29 | 0.29 | 83 | |
| 20260510001324 | 53 | 240 | 2.0 | 7.0 | 0.00 | 0.29 | 0.29 | 83 | |
| 20260510000823 | 53 | 251 | 0.0 | 6.0 | 0.00 | 0.29 | 0.29 | 83 | |
| 20260510000326 | 53 | 247 | 1.0 | 5.0 | 0.00 | 0.29 | 0.29 | 83 | |
| 20260509235821 | 54 | 253 | 1.0 | 5.0 | 0.00 | 0.29 | 0.29 | 83 | |
| 20260509235322 | 54 | 244 | 1.0 | 5.0 | 0.00 | 0.29 | 0.29 | 83 | |
| 20260509234821 | 54 | 264 | 0.0 | 5.0 | 0.00 | 0.29 | 0.29 | 83 | |
| 20260509234342 | 54 | 253 | 1.0 | 4.0 | 0.00 | 0.29 | 0.29 | 83 | |
| 20260509233841 | 54 | 252 | 2.0 | 5.0 | 0.00 | 0.29 | 0.29 | 83 | |
| 20260509233321 | 54 | 257 | 2.0 | 5.0 | 0.00 | 0.29 | 0.29 | 83 | |
| 20260509232840 | 54 | 201 | 0.0 | 7.0 | 0.00 | 0.29 | 0.29 | 83 | |
| 20260509232319 | 54 | 201 | 2.0 | 7.0 | 0.00 | 0.29 | 0.29 | 83 | |
| 20260509231840 | 54 | 231 | 1.0 | 7.0 | 0.00 | 0.29 | 0.29 | 83 | |
| 20260509231340 | 54 | 226 | 3.0 | 9.0 | 0.00 | 0.29 | 0.29 | 83 | |
| 20260509230820 | 54 | 224 | 2.0 | 7.0 | 0.00 | 0.29 | 0.29 | 83 | |
| 20260509230320 | 54 | 214 | 3.0 | 7.0 | 0.00 | 0.29 | 0.29 | 83 | |
| 20260509225840 | 54 | 229 | 2.0 | 8.0 | 0.00 | 0.29 | 0.29 | 83 | |
| 20260509225318 | 54 | 242 | 4.0 | 8.0 | 0.00 | 0.29 | 0.29 | 83 | |
| 20260509224818 | 54 | 237 | 3.0 | 11.0 | 0.00 | 0.29 | 0.29 | 83 | |
| 20260509224319 | 54 | 236 | 6.0 | 11.0 | 0.00 | 0.29 | 0.29 | 83 | |
| 20260509223818 | 54 | 188 | 5.0 | 13.0 | 0.00 | 0.29 | 0.29 | 83 | |
| 20260509223318 | 54 | 226 | 7.0 | 13.0 | 0.00 | 0.29 | 0.29 | 83 | |
| 20260509222815 | 54 | 226 | 4.0 | 13.0 | 0.00 | 0.29 | 0.29 | 83 | |
| 20260509222335 | 54 | 234 | 3.0 | 13.0 | 0.00 | 0.29 | 0.29 | 83 | |
| 20260509221834 | 54 | 233 | 5.0 | 13.0 | 0.00 | 0.29 | 0.29 | 83 | |
| 20260509221331 | 54 | 218 | 5.0 | 14.0 | 0.00 | 0.29 | 0.29 | 83 | |
| 20260509220832 | 54 | 238 | 8.0 | 15.0 | 0.00 | 0.29 | 0.29 | 83 | |
| 20260509220354 | 54 | 199 | 6.0 | 15.0 | 0.00 | 0.29 | 0.29 | 83 | |
| 20260509215832 | 54 | 223 | 5.0 | 8.0 | 0.00 | 0.29 | 0.29 | 83 | |
| 20260509215352 | 54 | 199 | 1.0 | 9.0 | 0.00 | 0.29 | 0.29 | 84 | |
| 20260509214832 | 54 | 262 | 5.0 | 12.0 | 0.00 | 0.29 | 0.29 | 83 | |
| 20260509214331 | 54 | 233 | 6.0 | 12.0 | 0.00 | 0.29 | 0.29 | 83 | |
| 20260509213832 | 54 | 234 | 3.0 | 12.0 | 0.00 | 0.29 | 0.29 | 84 | |
| 20260509213315 | 54 | 223 | 6.0 | 11.0 | 0.00 | 0.29 | 0.29 | 84 | |
| 20260509212816 | 53 | 224 | 7.0 | 11.0 | 0.00 | 0.29 | 0.29 | 84 | |
| 20260509212316 | 53 | 218 | 5.0 | 11.0 | 0.00 | 0.29 | 0.29 | 85 | |
| 20260509211816 | 53 | 241 | 4.0 | 11.0 | 0.00 | 0.29 | 0.29 | 85 | |
| 20260509211317 | 53 | 260 | 4.0 | 9.0 | 0.00 | 0.29 | 0.29 | 85 | |
| 20260509210833 | 53 | 245 | 3.0 | 8.0 | 0.00 | 0.29 | 0.29 | 86 | |
| 20260509210354 | 53 | 232 | 3.0 | 8.0 | 0.00 | 0.29 | 0.29 | 86 | |
| 20260509205832 | 53 | 212 | 3.0 | 9.0 | 0.00 | 0.29 | 0.29 | 86 | |
| 20260509205331 | 53 | 283 | 3.0 | 7.0 | 0.00 | 0.29 | 0.29 | 87 | |
| 20260509204831 | 53 | 240 | 2.0 | 9.0 | 0.00 | 0.29 | 0.29 | 87 | |
| 20260509204331 | 52 | 291 | 3.0 | 9.0 | 0.00 | 0.29 | 0.29 | 87 | |
| 20260509203832 | 52 | 145 | 4.0 | 11.0 | 0.00 | 0.29 | 0.29 | 87 | |
| 20260509203314 | 52 | 243 | 5.0 | 12.0 | 0.00 | 0.29 | 0.29 | 87 | |
| 20260509202815 | 52 | 269 | 5.0 | 12.0 | 0.00 | 0.29 | 0.29 | 87 | |
| 20260509202313 | 52 | 245 | 4.0 | 8.0 | 0.00 | 0.29 | 0.29 | 88 | |
| 20260509201814 | 52 | 230 | 4.0 | 9.0 | 0.00 | 0.29 | 0.29 | 88 | |
| 20260509201314 | 52 | 222 | 4.0 | 9.0 | 0.00 | 0.29 | 0.29 | 88 | |
| 20260509200814 | 52 | 233 | 3.0 | 8.0 | 0.00 | 0.29 | 0.29 | 87 | |
| 20260509200317 | 52 | 234 | 3.0 | 10.0 | 0.00 | 0.29 | 0.29 | 87 | |
| 20260509195815 | 52 | 192 | 5.0 | 10.0 | 0.00 | 0.29 | 0.29 | 87 | |
| 20260509195334 | 52 | 243 | 3.0 | 7.0 | 0.00 | 0.29 | 0.29 | 87 | |
| 20260509194831 | 52 | 219 | 3.0 | 7.0 | 0.00 | 0.29 | 0.29 | 87 | |
| 20260509194332 | 52 | 237 | 2.0 | 11.0 | 0.00 | 0.29 | 0.29 | 87 | |
| 20260509193848 | 52 | 228 | 3.0 | 11.0 | 0.00 | 0.29 | 0.29 | 87 | |
| 20260509193329 | 52 | 239 | 5.0 | 9.0 | 0.00 | 0.29 | 0.29 | 87 | |
| 20260509192829 | 52 | 216 | 5.0 | 9.0 | 0.00 | 0.29 | 0.29 | 87 | |
| 20260509192330 | 52 | 225 | 3.0 | 8.0 | 0.00 | 0.29 | 0.29 | 87 | |
| 20260509191830 | 52 | 253 | 3.0 | 7.0 | 0.00 | 0.29 | 0.29 | 87 | |
| 20260509191331 | 52 | 205 | 5.0 | 8.0 | 0.00 | 0.29 | 0.29 | 87 | |
| 20260509190832 | 52 | 212 | 3.0 | 12.0 | 0.00 | 0.29 | 0.29 | 87 | |
| 20260509190333 | 52 | 269 | 2.0 | 12.0 | 0.00 | 0.29 | 0.29 | 87 | |
| 20260509185831 | 52 | 233 | 2.0 | 7.0 | 0.00 | 0.29 | 0.29 | 87 | |
| 20260509185333 | 52 | 213 | 3.0 | 9.0 | 0.00 | 0.29 | 0.29 | 87 | |
| 20260509184853 | 52 | 243 | 4.0 | 9.0 | 0.00 | 0.29 | 0.29 | 87 | |
| 20260509184333 | 52 | 238 | 4.0 | 8.0 | 0.00 | 0.29 | 0.29 | 87 | |
| 20260509183833 | 52 | 204 | 2.0 | 7.0 | 0.00 | 0.29 | 0.29 | 87 | |
| 20260509183333 | 52 | 219 | 2.0 | 7.0 | 0.00 | 0.29 | 0.29 | 88 | |
| 20260509182832 | 52 | 273 | 3.0 | 7.0 | 0.00 | 0.29 | 0.29 | 87 | |
| 20260509182332 | 52 | 205 | 5.0 | 7.0 | 0.00 | 0.29 | 0.29 | 87 | |
| 20260509181833 | 52 | 228 | 1.0 | 5.0 | 0.00 | 0.29 | 0.29 | 88 | |
| 20260509181332 | 52 | 237 | 1.0 | 7.0 | 0.00 | 0.29 | 0.29 | 88 | |
| 20260509180850 | 52 | 268 | 3.0 | 7.0 | 0.00 | 0.29 | 0.29 | 88 | |
| 20260509180330 | 52 | 287 | 1.0 | 6.0 | 0.00 | 0.29 | 0.29 | 89 | |
| 20260509175829 | 52 | 251 | 1.0 | 7.0 | 0.00 | 0.29 | 0.29 | 88 | |
| 20260509175326 | 51 | 252 | 4.0 | 7.0 | 0.00 | 0.29 | 0.29 | 88 | |
| 20260509174826 | 51 | 239 | 3.0 | 6.0 | 0.01 | 0.29 | 0.29 | 89 | |
| 20260509174324 | 51 | 240 | 1.0 | 7.0 | 0.01 | 0.29 | 0.29 | 88 | |
| 20260509173845 | 51 | 240 | 2.0 | 7.0 | 0.01 | 0.29 | 0.29 | 88 | |
| 20260509173327 | 51 | 263 | 3.0 | 7.0 | 0.01 | 0.29 | 0.29 | 88 | |
| 20260509172828 | 51 | 248 | 2.0 | 7.0 | 0.02 | 0.29 | 0.29 | 89 | |
| 20260509172324 | 51 | 301 | 2.0 | 6.0 | 0.02 | 0.29 | 0.29 | 89 | |
| 20260509171844 | 51 | 251 | 0.0 | 8.0 | 0.02 | 0.29 | 0.29 | 90 | |
| 20260509171323 | 51 | 287 | 2.0 | 8.0 | 0.03 | 0.29 | 0.29 | 90 | |
| 20260509170823 | 51 | 262 | 2.0 | 8.0 | 0.03 | 0.29 | 0.29 | 90 | |
| 20260509170325 | 51 | 283 | 0.0 | 10.0 | 0.03 | 0.29 | 0.29 | 91 | |
| 20260509165825 | 50 | 248 | 5.0 | 10.0 | 0.04 | 0.31 | 0.29 | 91 | |
| 20260509165324 | 50 | 213 | 4.0 | 8.0 | 0.04 | 0.31 | 0.29 | 91 | |
| 20260509164822 | 50 | 235 | 2.0 | 5.0 | 0.03 | 0.30 | 0.28 | 92 | |
| 20260509164342 | 50 | 120 | 1.0 | 4.0 | 0.04 | 0.30 | 0.28 | 92 | |
| 20260509163821 | 50 | 241 | 1.0 | 4.0 | 0.04 | 0.30 | 0.28 | 92 | |
| 20260509163341 | 50 | 281 | 1.0 | 6.0 | 0.03 | 0.29 | 0.27 | 92 | |
| 20260509162819 | 50 | 247 | 2.0 | 6.0 | 0.04 | 0.29 | 0.27 | 92 | |
| 20260509162319 | 50 | 295 | 1.0 | 10.0 | 0.04 | 0.29 | 0.27 | 92 | |
| 20260509161818 | 50 | 287 | 3.0 | 10.0 | 0.04 | 0.29 | 0.27 | 92 | |
| 20260509161318 | 50 | 290 | 1.0 | 4.0 | 0.03 | 0.28 | 0.26 | 92 | |
| 20260509160819 | 50 | 294 | 1.0 | 4.0 | 0.03 | 0.28 | 0.26 | 93 | |
| 20260509160320 | 49 | 295 | 2.0 | 6.0 | 0.04 | 0.28 | 0.26 | 93 | |
| 20260509155818 | 49 | 293 | 1.0 | 6.0 | 0.03 | 0.30 | 0.25 | 93 | |
| 20260509155338 | 49 | 301 | 2.0 | 6.0 | 0.03 | 0.30 | 0.25 | 93 | |
| 20260509154817 | 49 | 299 | 3.0 | 5.0 | 0.02 | 0.29 | 0.24 | 93 | |
| 20260509154316 | 49 | 295 | 2.0 | 6.0 | 0.02 | 0.29 | 0.24 | 93 | |
| 20260509153816 | 49 | 308 | 3.0 | 6.0 | 0.02 | 0.29 | 0.24 | 93 | |
| 20260509153318 | 49 | 26 | 0.0 | 0.0 | 0.03 | 0.29 | 0.24 | 93 | |
| 20260509152818 | 49 | 26 | 0.0 | 0.0 | 0.02 | 0.28 | 0.23 | 93 | |
| 20260509152318 | 49 | 26 | 0.0 | 0.0 | 0.02 | 0.28 | 0.23 | 93 | |
| 20260509151817 | 49 | 26 | 0.0 | 0.0 | 0.02 | 0.28 | 0.23 | 93 | |
| 20260509151339 | 49 | 26 | 0.0 | 6.0 | 0.03 | 0.28 | 0.23 | 93 | |
| 20260509150833 | 49 | 26 | 0.0 | 6.0 | 0.03 | 0.28 | 0.23 | 93 | |
| 20260509150354 | 49 | 105 | 0.0 | 0.0 | 0.02 | 0.27 | 0.22 | 93 | |
| 20260509145853 | 49 | 135 | 0.0 | 1.0 | 0.02 | 0.27 | 0.22 | 94 | |
| 20260509145333 | 48 | 135 | 0.0 | 1.0 | 0.03 | 0.27 | 0.22 | 94 | |
| 20260509144829 | 48 | 136 | 0.0 | 0.0 | 0.03 | 0.27 | 0.22 | 93 | |
| 20260509144329 | 48 | 136 | 0.0 | 0.0 | 0.03 | 0.27 | 0.22 | 93 | |
| 20260509143829 | 48 | 136 | 0.0 | 0.0 | 0.03 | 0.27 | 0.22 | 93 | |
| 20260509143330 | 48 | 136 | 0.0 | 0.0 | 0.02 | 0.26 | 0.21 | 94 | |
| 20260509142850 | 48 | 137 | 0.0 | 0.0 | 0.02 | 0.26 | 0.21 | 94 | |
| 20260509142329 | 48 | 137 | 0.0 | 0.0 | 0.02 | 0.26 | 0.21 | 94 | |
| 20260509141846 | 47 | 137 | 0.0 | 0.0 | 0.02 | 0.26 | 0.21 | 94 | |
| 20260509141346 | 47 | 137 | 0.0 | 0.0 | 0.02 | 0.25 | 0.20 | 94 | |
| 20260509140825 | 47 | 137 | 0.0 | 3.0 | 0.02 | 0.25 | 0.20 | 94 | |
| 20260509140325 | 46 | 137 | 0.0 | 5.0 | 0.02 | 0.25 | 0.20 | 94 | |
| 20260509135825 | 46 | 25 | 0.0 | 0.0 | 0.02 | 0.25 | 0.20 | 94 | |
| 20260509135325 | 46 | 22 | 0.0 | 0.0 | 0.02 | 0.24 | 0.19 | 93 | |
| 20260509134824 | 46 | 22 | 0.0 | 0.0 | 0.02 | 0.24 | 0.19 | 93 | |
| 20260509134324 | 46 | 22 | 0.0 | 0.0 | 0.03 | 0.24 | 0.19 | 93 | |
| 20260509133823 | 45 | 22 | 0.0 | 2.0 | 0.03 | 0.24 | 0.19 | 93 | |
| 20260509133324 | 45 | 22 | 0.0 | 3.0 | 0.04 | 0.24 | 0.19 | 93 | |
| 20260509132823 | 45 | 22 | 0.0 | 0.0 | 0.04 | 0.24 | 0.19 | 93 | |
| 20260509132324 | 45 | 22 | 0.0 | 0.0 | 0.05 | 0.24 | 0.19 | 93 | |
| 20260509131824 | 45 | 22 | 0.0 | 0.0 | 0.05 | 0.24 | 0.19 | 93 | |
| 20260509131343 | 44 | 22 | 0.0 | 0.0 | 0.05 | 0.23 | 0.18 | 93 | |
| 20260509130822 | 44 | 22 | 0.0 | 0.0 | 0.05 | 0.23 | 0.18 | 93 | |
| 20260509130323 | 44 | 22 | 0.0 | 0.0 | 0.05 | 0.23 | 0.18 | 93 | |
| 20260509125822 | 44 | 22 | 0.0 | 0.0 | 0.06 | 0.23 | 0.18 | 93 | |
| 20260509125322 | 44 | 22 | 0.0 | 0.0 | 0.05 | 0.22 | 0.17 | 93 | |
| 20260509124823 | 43 | 22 | 0.0 | 0.0 | 0.05 | 0.22 | 0.17 | 93 | |
| 20260509124322 | 43 | 22 | 0.0 | 0.0 | 0.04 | 0.21 | 0.16 | 93 | |
| 20260509123822 | 43 | 22 | 0.0 | 0.0 | 0.04 | 0.21 | 0.16 | 93 | |
| 20260509123323 | 43 | 22 | 0.0 | 3.0 | 0.03 | 0.20 | 0.15 | 93 | |
| 20260509122824 | 43 | 22 | 0.0 | 3.0 | 0.03 | 0.20 | 0.15 | 93 | |
| 20260509122322 | 43 | 22 | 0.0 | 0.0 | 0.02 | 0.19 | 0.14 | 93 | |
| 20260509121821 | 43 | 21 | 0.0 | 0.0 | 0.02 | 0.19 | 0.14 | 93 | |
| 20260509121321 | 42 | 21 | 0.0 | 0.0 | 0.02 | 0.18 | 0.13 | 93 | |
| 20260509120821 | 42 | 21 | 0.0 | 4.0 | 0.02 | 0.18 | 0.13 | 93 | |
| 20260509120323 | 42 | 21 | 0.0 | 4.0 | 0.02 | 0.18 | 0.13 | 93 | |
| 20260509115821 | 42 | 20 | 0.0 | 1.0 | 0.01 | 0.17 | 0.12 | 93 | |
| 20260509115340 | 42 | 19 | 0.0 | 3.0 | 0.01 | 0.17 | 0.12 | 93 | |
| 20260509114839 | 42 | 17 | 1.0 | 3.0 | 0.01 | 0.17 | 0.12 | 93 | |
| 20260509114318 | 41 | 17 | 0.0 | 0.0 | 0.01 | 0.17 | 0.12 | 92 | |
| 20260509113818 | 41 | 17 | 0.0 | 0.0 | 0.01 | 0.17 | 0.12 | 92 | |
| 20260509113317 | 41 | 17 | 0.0 | 0.0 | 0.01 | 0.17 | 0.12 | 92 | |
| 20260509112817 | 41 | 17 | 0.0 | 0.0 | 0.01 | 0.17 | 0.12 | 92 | |
| 20260509112318 | 41 | 17 | 0.0 | 0.0 | 0.01 | 0.17 | 0.12 | 92 | |
| 20260509111838 | 41 | 17 | 0.0 | 0.0 | 0.01 | 0.17 | 0.12 | 92 | |
| 20260509111315 | 41 | 17 | 0.0 | 0.0 | 0.00 | 0.16 | 0.11 | 92 | |
| 20260509110815 | 40 | 17 | 0.0 | 0.0 | 0.00 | 0.16 | 0.11 | 92 | |
| 20260509110317 | 40 | 17 | 0.0 | 0.0 | 0.00 | 0.16 | 0.11 | 92 | |
| 20260509105814 | 40 | 17 | 0.0 | 0.0 | 0.00 | 0.16 | 0.11 | 92 | |
| 20260509105314 | 40 | 17 | 0.0 | 0.0 | 0.00 | 0.16 | 0.11 | 92 | |
| 20260509104813 | 40 | 17 | 0.0 | 0.0 | 0.00 | 0.16 | 0.11 | 92 | |
| 20260509104335 | 40 | 17 | 0.0 | 0.0 | 0.00 | 0.16 | 0.11 | 92 | |
| 20260509103836 | 40 | 17 | 0.0 | 0.0 | 0.00 | 0.16 | 0.11 | 92 | |
| 20260509103316 | 39 | 17 | 0.0 | 0.0 | 0.00 | 0.16 | 0.11 | 92 | |
| 20260509102815 | 39 | 17 | 0.0 | 0.0 | 0.00 | 0.16 | 0.11 | 91 | |
| 20260509102314 | 39 | 17 | 0.0 | 1.0 | 0.00 | 0.16 | 0.11 | 91 | |
| 20260509101814 | 39 | 17 | 0.0 | 0.0 | 0.00 | 0.16 | 0.11 | 91 | |
| 20260509101314 | 39 | 17 | 0.0 | 2.0 | 0.01 | 0.16 | 0.11 | 91 | |
| 20260509100814 | 39 | 17 | 0.0 | 3.0 | 0.01 | 0.16 | 0.11 | 91 | |
| 20260509100316 | 39 | 16 | 0.0 | 2.0 | 0.02 | 0.16 | 0.11 | 91 | |
| 20260509095814 | 39 | 16 | 0.0 | 0.0 | 0.03 | 0.16 | 0.11 | 91 | |
| 20260509095313 | 39 | 16 | 0.0 | 0.0 | 0.04 | 0.16 | 0.11 | 91 | |
| 20260509094813 | 39 | 16 | 0.0 | 0.0 | 0.06 | 0.16 | 0.11 | 91 | |
| 20260509094313 | 39 | 16 | 0.0 | 0.0 | 0.08 | 0.16 | 0.11 | 91 | |
| 20260509093814 | 38 | 15 | 0.0 | 0.0 | 0.09 | 0.16 | 0.11 | 91 | |
| 20260509093317 | 38 | 15 | 0.0 | 0.0 | 0.09 | 0.16 | 0.11 | 90 | |
| 20260509092814 | 38 | 15 | 0.0 | 0.0 | 0.10 | 0.16 | 0.11 | 90 | |
| 20260509092334 | 38 | 15 | 0.0 | 0.0 | 0.10 | 0.16 | 0.11 | 90 | |
| 20260509091814 | 38 | 16 | 0.0 | 2.0 | 0.10 | 0.16 | 0.11 | 90 | |
| 20260509091314 | 38 | 16 | 0.0 | 2.0 | 0.09 | 0.15 | 0.10 | 90 | |
| 20260509090814 | 38 | 15 | 0.0 | 2.0 | 0.10 | 0.15 | 0.10 | 90 | |
| 20260509090329 | 38 | 16 | 0.0 | 2.0 | 0.09 | 0.14 | 0.09 | 89 | |
| 20260509085829 | 38 | 15 | 0.0 | 2.0 | 0.08 | 0.13 | 0.08 | 89 | |
| 20260509085328 | 37 | 15 | 0.0 | 0.0 | 0.06 | 0.11 | 0.06 | 89 | |
| 20260509084828 | 37 | 15 | 0.0 | 3.0 | 0.05 | 0.10 | 0.05 | 89 | |
| 20260509084327 | 37 | 15 | 0.0 | 3.0 | 0.03 | 0.08 | 0.03 | 89 | |
| 20260509083828 | 37 | 14 | 0.0 | 3.0 | 0.02 | 0.07 | 0.02 | 89 | |
| 20260509083329 | 37 | 14 | 0.0 | 3.0 | 0.02 | 0.07 | 0.02 | 89 | |
| 20260509082813 | 37 | 14 | 0.0 | 2.0 | 0.01 | 0.06 | 0.01 | 88 | |
| 20260509082328 | 37 | 14 | 0.0 | 2.0 | 0.01 | 0.06 | 0.01 | 88 | |
| 20260509081849 | 37 | 13 | 0.0 | 0.0 | 0.01 | 0.06 | 0.01 | 88 | |
| 20260509081329 | 37 | 13 | 0.0 | 0.0 | 0.01 | 0.06 | 0.01 | 88 | |
| 20260509080828 | 37 | 13 | 0.0 | 0.0 | 0.00 | 0.05 | 0.00 | 88 | |
| 20260509080330 | 37 | 13 | 0.0 | 0.0 | 0.00 | 0.05 | 0.00 | 88 | |
| 20260509075828 | 36 | 13 | 0.0 | 0.0 | 0.00 | 0.05 | 0.00 | 88 | |
| 20260509075329 | 36 | 14 | 0.0 | 0.0 | 0.00 | 0.05 | 0.00 | 88 | |
| 20260509074828 | 36 | 13 | 0.0 | 0.0 | 0.00 | 0.05 | 0.00 | 88 | |
| 20260509074329 | 36 | 13 | 0.0 | 0.0 | 0.00 | 0.05 | 0.00 | 89 | |
| 20260509073829 | 36 | 13 | 0.0 | 0.0 | 0.00 | 0.05 | 0.00 | 88 | |
| 20260509073331 | 36 | 13 | 0.0 | 0.0 | 0.00 | 0.05 | 0.00 | 89 | |
| 20260509072831 | 36 | 13 | 0.0 | 0.0 | 0.00 | 0.05 | 0.00 | 89 | |
| 20260509072331 | 36 | 13 | 0.0 | 0.0 | 0.00 | 0.05 | 0.00 | 89 | |
| 20260509071830 | 36 | 14 | 0.0 | 0.0 | 0.00 | 0.05 | 0.00 | 89 | |
| 20260509071330 | 36 | 14 | 0.0 | 2.0 | 0.00 | 0.05 | 0.00 | 89 | |
| 20260509070851 | 36 | 14 | 0.0 | 2.0 | 0.00 | 0.05 | 0.00 | 89 | |
| 20260509070331 | 36 | 13 | 0.0 | 0.0 | 0.00 | 0.05 | 0.00 | 89 | |
| 20260509065830 | 35 | 13 | 0.0 | 3.0 | 0.00 | 0.05 | 0.00 | 89 | |
| 20260509065350 | 36 | 14 | 1.0 | 3.0 | 0.00 | 0.05 | 0.00 | 89 | |
| 20260509064828 | 36 | 12 | 0.0 | 0.0 | 0.00 | 0.05 | 0.00 | 89 | |
| 20260509064328 | 36 | 12 | 0.0 | 0.0 | 0.00 | 0.05 | 0.00 | 89 | |
| 20260509063827 | 35 | 12 | 0.0 | 0.0 | 0.00 | 0.05 | 0.00 | 89 | |
| 20260509063327 | 35 | 12 | 0.0 | 0.0 | 0.00 | 0.05 | 0.00 | 89 | |
| 20260509062827 | 35 | 12 | 0.0 | 0.0 | 0.00 | 0.05 | 0.00 | 89 | |
| 20260509062347 | 35 | 12 | 0.0 | 0.0 | 0.00 | 0.05 | 0.00 | 89 | |
| 20260509061825 | 36 | 12 | 0.0 | 0.0 | 0.00 | 0.05 | 0.00 | 89 | |
| 20260509061326 | 36 | 12 | 0.0 | 0.0 | 0.00 | 0.05 | 0.00 | 89 | |
| 20260509060825 | 35 | 12 | 0.0 | 0.0 | 0.00 | 0.05 | 0.00 | 89 | |
| 20260509060327 | 35 | 12 | 0.0 | 0.0 | 0.00 | 0.05 | 0.00 | 89 | |
| 20260509055826 | 35 | 12 | 0.0 | 0.0 | 0.00 | 0.05 | 0.00 | 88 | |
| 20260509055327 | 35 | 12 | 0.0 | 0.0 | 0.00 | 0.05 | 0.00 | 88 | |
| 20260509054828 | 35 | 12 | 0.0 | 0.0 | 0.00 | 0.05 | 0.00 | 88 | |
| 20260509054328 | 35 | 12 | 0.0 | 0.0 | 0.00 | 0.05 | 0.00 | 88 | |
| 20260509053829 | 36 | 12 | 0.0 | 0.0 | 0.00 | 0.05 | 0.00 | 87 | |
| 20260509053331 | 36 | 12 | 0.0 | 0.0 | 0.00 | 0.05 | 0.00 | 87 | |
| 20260509052829 | 36 | 12 | 0.0 | 0.0 | 0.00 | 0.05 | 0.00 | 87 | |
| 20260509052350 | 36 | 12 | 0.0 | 0.0 | 0.00 | 0.05 | 0.00 | 87 | |
| 20260509051827 | 36 | 12 | 0.0 | 0.0 | 0.00 | 0.05 | 0.00 | 87 | |
| 20260509051347 | 36 | 12 | 0.0 | 0.0 | 0.00 | 0.05 | 0.00 | 86 | |
| 20260509050845 | 37 | 12 | 0.0 | 0.0 | 0.00 | 0.05 | 0.00 | 86 | |
| 20260509050326 | 37 | 12 | 0.0 | 0.0 | 0.00 | 0.05 | 0.00 | 86 | |
| 20260509045844 | 37 | 12 | 0.0 | 0.0 | 0.00 | 0.05 | 0.00 | 85 | |
| 20260509045322 | 37 | 12 | 0.0 | 0.0 | 0.00 | 0.05 | 0.00 | 85 | |
| 20260509044823 | 38 | 12 | 0.0 | 0.0 | 0.00 | 0.05 | 0.00 | 85 | |
| 20260509044324 | 38 | 12 | 0.0 | 0.0 | 0.00 | 0.05 | 0.00 | 85 | |
| 20260509043825 | 38 | 12 | 0.0 | 0.0 | 0.00 | 0.05 | 0.00 | 84 | |
| 20260509043326 | 38 | 12 | 0.0 | 0.0 | 0.00 | 0.05 | 0.00 | 84 | |
| 20260509042845 | 38 | 12 | 0.0 | 0.0 | 0.00 | 0.05 | 0.00 | 83 | |
| 20260509042323 | 39 | 12 | 0.0 | 0.0 | 0.00 | 0.05 | 0.00 | 83 | |
| 20260509041819 | 39 | 12 | 0.0 | 0.0 | 0.00 | 0.05 | 0.00 | 83 | |
| 20260509041319 | 39 | 12 | 0.0 | 0.0 | 0.00 | 0.05 | 0.00 | 83 | |
| 20260509040820 | 39 | 12 | 0.0 | 0.0 | 0.00 | 0.05 | 0.00 | 83 | |
| 20260509040321 | 39 | 10 | 0.0 | 0.0 | 0.00 | 0.05 | 0.00 | 83 | |
| 20260509035819 | 39 | 10 | 0.0 | 0.0 | 0.00 | 0.05 | 0.05 | 83 | |
| 20260509035337 | 39 | 10 | 0.0 | 0.0 | 0.00 | 0.05 | 0.05 | 83 | |
| 20260509034816 | 39 | 10 | 0.0 | 0.0 | 0.00 | 0.05 | 0.05 | 83 | |
| 20260509034336 | 39 | 10 | 0.0 | 0.0 | 0.00 | 0.05 | 0.05 | 83 | |
| 20260509033814 | 39 | 10 | 0.0 | 0.0 | 0.00 | 0.05 | 0.05 | 82 | |
| 20260509033316 | 39 | 10 | 0.0 | 0.0 | 0.00 | 0.05 | 0.05 | 82 | |
| 20260509032816 | 40 | 10 | 0.0 | 0.0 | 0.00 | 0.05 | 0.05 | 82 | |
| 20260509032316 | 39 | 10 | 0.0 | 0.0 | 0.00 | 0.05 | 0.05 | 82 | |
| 20260509031817 | 40 | 10 | 0.0 | 0.0 | 0.00 | 0.05 | 0.05 | 82 | |
| 20260509031338 | 40 | 10 | 0.0 | 0.0 | 0.00 | 0.05 | 0.05 | 82 | |
| 20260509030831 | 40 | 10 | 0.0 | 0.0 | 0.00 | 0.05 | 0.05 | 82 | |
| 20260509030330 | 40 | 9 | 0.0 | 0.0 | 0.00 | 0.05 | 0.05 | 82 | |
| 20260509025850 | 40 | 10 | 0.0 | 0.0 | 0.00 | 0.05 | 0.05 | 82 | |
| 20260509025350 | 40 | 9 | 0.0 | 0.0 | 0.00 | 0.05 | 0.05 | 81 | |
| 20260509024850 | 40 | 10 | 0.0 | 0.0 | 0.00 | 0.05 | 0.05 | 81 | |
| 20260509024352 | 40 | 10 | 0.0 | 0.0 | 0.00 | 0.05 | 0.05 | 81 | |
| 20260509023831 | 39 | 9 | 0.0 | 0.0 | 0.00 | 0.05 | 0.05 | 81 | |
| 20260509023332 | 39 | 8 | 0.0 | 2.0 | 0.00 | 0.05 | 0.05 | 81 | |
| 20260509022832 | 39 | 8 | 1.0 | 2.0 | 0.00 | 0.05 | 0.05 | 81 | |
| 20260509022331 | 39 | 8 | 0.0 | 3.0 | 0.00 | 0.05 | 0.05 | 81 | |
| 20260509021830 | 39 | 8 | 0.0 | 4.0 | 0.00 | 0.05 | 0.05 | 81 | |
| 20260509021330 | 39 | 4 | 2.0 | 4.0 | 0.00 | 0.05 | 0.05 | 81 | |
| 20260509020850 | 39 | 8 | 0.0 | 2.0 | 0.00 | 0.05 | 0.05 | 82 | |
| 20260509020330 | 39 | 8 | 0.0 | 3.0 | 0.00 | 0.05 | 0.05 | 82 |